H1 CPF 1 NER 2017 9 8 9 7511 glonass103 H2 0606202 9103 29671 2017 9 8 0 0 0 2017 9 11 23 45 0 900 1 1 0 0 0 H9 10 0 58004 0.00000 0 -15023583.998 19419079.455 6733858.654 10 0 58004 900.00000 0 -15327747.312 20011052.364 3576253.280 10 0 58004 1800.00000 0 -15338875.403 20318329.255 348770.426 10 0 58004 2700.00000 0 -15096927.571 20300383.936 -2885527.948 10 0 58004 3600.00000 0 -14650376.018 19927514.569 -6063471.456 10 0 58004 4500.00000 0 -14053943.639 19182259.368 -9123037.230 10 0 58004 5400.00000 0 -13366091.544 18060305.462 -12004579.192 10 0 58004 6300.00000 0 -12646365.629 16570852.037 -14652004.658 10 0 58004 7200.00000 0 -11952717.094 14736413.031 -17013873.796 10 0 58004 8100.00000 0 -11338912.258 12592068.864 -19044399.826 10 0 58004 9000.00000 0 -10852142.215 10184200.210 -20704330.591 10 0 58004 9900.00000 0 -10530933.435 7568758.762 -21961695.082 10 0 58004 10800.00000 0 -10403446.635 4809148.950 -22792401.995 10 0 58004 11700.00000 0 -10486234.001 1973810.218 -23180680.698 10 0 58004 12600.00000 0 -10783504.916 -866398.714 -23119358.348 10 0 58004 13500.00000 0 -11286928.588 -3640905.075 -22609970.250 10 0 58004 14400.00000 0 -11975979.480 -6282105.426 -21662703.634 10 0 58004 15300.00000 0 -12818808.873 -8727917.631 -20296177.908 10 0 58004 16200.00000 0 -13773604.422 -10924098.081 -18537067.252 10 0 58004 17100.00000 0 -14790379.801 -12826231.055 -16419573.816 10 0 58004 18000.00000 0 -15813119.187 -14401310.759 -13984762.201 10 0 58004 18900.00000 0 -16782187.239 -15628853.532 -11279767.961 10 0 58004 19800.00000 0 -17636904.625 -16501496.846 -8356894.780 10 0 58004 20700.00000 0 -18318182.605 -17025062.435 -5272616.799 10 0 58004 21600.00000 0 -18771107.835 -17218082.696 -2086504.010 10 0 58004 22500.00000 0 -18947370.587 -17110811.096 1139910.082 10 0 58004 23400.00000 0 -18807435.783 -16743758.202 4344298.195 10 0 58004 24300.00000 0 -18322366.565 -16165814.226 7464725.431 10 0 58004 25200.00000 0 -17475223.991 -15432035.862 10440830.469 10 0 58004 26100.00000 0 -16261983.548 -14601188.982 13214980.202 10 0 58004 27000.00000 0 -14691928.626 -13733148.977 15733376.602 10 0 58004 27900.00000 0 -12787502.278 -12886266.647 17947095.225 10 0 58004 28800.00000 0 -10583620.755 -12114809.338 19813035.610 10 0 58004 29700.00000 0 -8126474.301 -11466584.372 21294765.269 10 0 58004 30600.00000 0 -5471861.894 -10980844.768 22363240.582 10 0 58004 31500.00000 0 -2683126.178 -10686566.071 22997389.771 10 0 58004 32400.00000 0 171228.310 -10601168.146 23184545.505 10 0 58004 33300.00000 0 3020136.834 -10729737.640 22920717.163 10 0 58004 34200.00000 0 5792689.308 -11064786.169 22210695.576 10 0 58004 35100.00000 0 8420846.132 -11586556.885 21067986.196 10 0 58004 36000.00000 0 10842041.913 -12263868.895 19514569.853 10 0 58004 36900.00000 0 13001567.753 -13055465.960 17580493.815 10 0 58004 37800.00000 0 14854631.452 -13911813.969 15303299.446 10 0 58004 38700.00000 0 16368008.017 -14777271.942 12727296.353 10 0 58004 39600.00000 0 17521209.801 -15592544.533 9902696.671 10 0 58004 40500.00000 0 18307126.009 -16297311.191 6884626.441 10 0 58004 41400.00000 0 18732104.087 -16832918.836 3732034.185 10 0 58004 42300.00000 0 18815469.647 -17145021.587 506519.575 10 0 58004 43200.00000 0 18588506.160 -17186053.097 -2728892.919 10 0 58004 44100.00000 0 18092939.269 -16917424.149 -5911009.056 10 0 58004 45000.00000 0 17378992.216 -16311350.219 -8977721.384 10 0 58004 45900.00000 0 16503097.499 -15352230.060 -11869240.442 10 0 58004 46800.00000 0 15525364.539 -14037516.131 -14529274.511 10 0 58004 47700.00000 0 14506913.235 -12378040.102 -16906133.382 10 0 58004 48600.00000 0 13507188.393 -10397780.379 -18953733.876 10 0 58004 49500.00000 0 12581369.913 -8133082.636 -20632487.613 10 0 58004 50400.00000 0 11777988.566 -5631367.684 -21910054.445 10 0 58004 51300.00000 0 11136847.400 -2949382.350 -22761948.463 10 0 58004 52200.00000 0 10687334.888 -151067.754 -23171986.790 10 0 58004 53100.00000 0 10447198.675 2694865.188 -23132574.744 10 0 58004 54000.00000 0 10421828.806 5517552.017 -22644824.322 10 0 58004 54900.00000 0 10604077.752 8246674.623 -21718505.982 10 0 58004 55800.00000 0 10974622.101 10815134.015 -20371836.711 10 0 58004 56700.00000 0 11502848.466 13161587.167 -18631110.062 10 0 58004 57600.00000 0 12148224.795 15232745.375 -16530176.334 10 0 58004 58500.00000 0 12862098.618 16985341.601 -14109783.473 10 0 58004 59400.00000 0 13589846.646 18387688.173 -11416791.335 10 0 58004 60300.00000 0 14273286.050 19420762.976 -8503273.879 10 0 58004 61200.00000 0 14853247.293 20078781.323 -5425525.707 10 0 58004 62100.00000 0 15272201.942 20369231.626 -2242990.801 10 0 58004 63000.00000 0 15476836.632 20312374.571 982867.415 10 0 58004 63900.00000 0 15420466.485 19940227.187 4189734.373 10 0 58004 64800.00000 0 15065187.629 19295074.107 7315630.106 10 0 58004 65700.00000 0 14383678.830 18427567.540 10300091.086 10 0 58004 66600.00000 0 13360576.352 17394494.293 13085326.538 10 0 58004 67500.00000 0 11993363.270 16256302.002 15617328.055 10 0 58004 68400.00000 0 10292734.021 15074486.773 17846911.835 10 0 58004 69300.00000 0 8282416.410 13908950.529 19730673.787 10 0 58004 70200.00000 0 5998455.344 12815437.982 21231839.113 10 0 58004 71100.00000 0 3487984.738 11843160.358 22320989.581 10 0 58004 72000.00000 0 807535.382 11032705.793 22976653.562 10 0 58004 72900.00000 0 -1979053.998 10414324.957 23185746.265 10 0 58004 73800.00000 0 -4803038.372 10006665.247 22943850.048 10 0 58004 74700.00000 0 -7593382.739 9816008.612 22255327.486 10 0 58004 75600.00000 0 -10279485.661 9836047.127 21133262.992 10 0 58004 76500.00000 0 -12793896.979 10048207.896 19599231.984 10 0 58004 77400.00000 0 -15074916.014 10422515.487 17682900.133 10 0 58004 78300.00000 0 -17068960.805 10918956.977 15421458.806 10 0 58004 79200.00000 0 -18732607.850 11489292.748 12858906.450 10 0 58004 80100.00000 0 -20034215.241 12079236.444 10045189.342 10 0 58004 81000.00000 0 -20955059.543 12630910.997 7035218.531 10 0 58004 81900.00000 0 -21489937.567 13085475.034 3887782.912 10 0 58004 82800.00000 0 -21647207.135 13385806.089 664381.204 10 0 58004 83700.00000 0 -21448265.481 13479124.171 -2572002.354 10 0 58004 84600.00000 0 -20926488.471 13319441.724 -5758152.305 10 0 58004 85500.00000 0 -20125677.381 12869733.551 -8831879.140 10 0 58005 0.00000 0 -19098081.418 12103732.817 -11733252.325 10 0 58005 900.00000 0 -17902082.470 11007275.260 -14405783.408 10 0 58005 1800.00000 0 -16599642.533 9579135.605 -16797533.731 10 0 58005 2700.00000 0 -15253624.633 7831318.844 -18862125.408 10 0 58005 3600.00000 0 -13925101.375 5788797.186 -20559635.225 10 0 58005 4500.00000 0 -12670766.138 3488703.635 -21857354.950 10 0 58005 5400.00000 0 -11540555.570 979018.048 -22730404.774 10 0 58005 6300.00000 0 -10575582.372 -1683198.129 -23162189.948 10 0 58005 7200.00000 0 -9806463.318 -4433943.613 -23144694.005 10 0 58005 8100.00000 0 -9252110.062 -7204705.813 -22678605.360 10 0 58005 9000.00000 0 -8919030.426 -9925075.344 -21773277.143 10 0 58005 9900.00000 0 -8801166.417 -12525438.712 -20446523.070 10 0 58005 10800.00000 0 -8880272.884 -14939639.080 -18724254.969 10 0 58005 11700.00000 0 -9126818.559 -17107496.910 -16639969.965 10 0 58005 12600.00000 0 -9501370.027 -18977088.406 -14234097.843 10 0 58005 13500.00000 0 -9956399.636 -20506689.993 -11553221.110 10 0 58005 14400.00000 0 -10438441.353 -21666310.789 -8649182.247 10 0 58005 15300.00000 0 -10890504.585 -22438751.718 -5578094.485 10 0 58005 16200.00000 0 -11254645.627 -22820149.195 -2399273.892 10 0 58005 17100.00000 0 -11474590.056 -22819982.057 825888.169 10 0 58005 18000.00000 0 -11498297.202 -22460542.105 4035091.922 10 0 58005 18900.00000 0 -11280360.119 -21775890.346 7166314.540 10 0 58005 19800.00000 0 -10784140.856 -20810341.901 10158992.613 10 0 58005 20700.00000 0 -9983551.451 -19616541.765 12955180.132 10 0 58005 21600.00000 0 -8864405.162 -18253210.450 15500660.776 10 0 58005 22500.00000 0 -7425279.731 -16782652.207 17745993.837 10 0 58005 23400.00000 0 -5677854.273 -15268128.589 19647473.932 10 0 58005 24300.00000 0 -3646702.729 -13771206.020 21167986.094 10 0 58005 25200.00000 0 -1368549.095 -12349187.537 22277739.335 10 0 58005 26100.00000 0 1108988.038 -11052735.984 22954863.699 10 0 58005 27000.00000 0 3729112.839 -9923788.478 23185858.090 10 0 58005 27900.00000 0 6427963.158 -8993850.402 22965878.607 10 0 58005 28800.00000 0 9137029.626 -8282741.858 22298859.958 10 0 58005 29700.00000 0 11785784.015 -7797850.880 21197465.540 10 0 58005 30600.00000 0 14304408.353 -7533926.621 19682865.020 10 0 58005 31500.00000 0 16626510.902 -7473422.967 17784341.782 10 0 58005 32400.00000 0 18691714.947 -7587379.518 15538736.169 10 0 58005 33300.00000 0 20448010.751 -7836803.601 12989734.066 10 0 58005 34200.00000 0 21853770.373 -8174495.100 10187014.112 10 0 58005 35100.00000 0 22879339.036 -8547236.227 7185270.197 10 0 58005 36000.00000 0 23508134.590 -8898252.044 4043129.050 10 0 58005 36900.00000 0 23737207.695 -9169835.312 821985.578 10 0 58005 37800.00000 0 23577238.794 -9306021.729 -2415219.307 10 0 58005 38700.00000 0 23051972.534 -9255199.182 -5605252.160 10 0 58005 39600.00000 0 22197114.852 -8972537.635 -8685844.655 10 0 58005 40500.00000 0 21058741.386 -8422134.177 -11596928.441 10 0 58005 41400.00000 0 19691286.998 -7578780.575 -14281821.085 10 0 58005 42300.00000 0 18155204.069 -6429277.513 -16688338.272 10 0 58005 43200.00000 0 16514390.911 -4973239.709 -18769809.859 10 0 58005 44100.00000 0 14833500.829 -3223358.402 -20485979.922 10 0 58005 45000.00000 0 13175246.477 -1205111.232 -21803773.937 10 0 58005 45900.00000 0 11597813.265 1044066.977 -22697919.655 10 0 58005 46800.00000 0 10152489.810 3476116.385 -23151411.544 10 0 58005 47700.00000 0 8881613.269 6034130.271 -23155812.057 10 0 58005 48600.00000 0 7816913.243 8654504.159 -22711386.352 10 0 58005 49500.00000 0 6978320.563 11269366.230 -21827070.147 10 0 58005 50400.00000 0 6373287.579 13809188.327 -20520273.437 10 0 58005 51300.00000 0 5996645.075 16205470.209 -18816525.481 10 0 58005 52200.00000 0 5830998.863 18393387.389 -16748969.019 10 0 58005 53100.00000 0 5847647.051 20314294.720 -14357714.098 10 0 58005 54000.00000 0 6007977.853 21917984.306 -11689063.943 10 0 58005 54900.00000 0 6265288.468 23164606.441 -8794627.274 10 0 58005 55800.00000 0 6566948.590 24026176.021 -5730333.349 10 0 58005 56700.00000 0 6856818.245 24487603.732 -2555367.433 10 0 58005 57600.00000 0 7077819.388 24547210.507 668954.272 10 0 58005 58500.00000 0 7174554.424 24216704.546 3880350.030 10 0 58005 59400.00000 0 7095862.773 23520622.012 7016757.431 10 0 58005 60300.00000 0 6797208.936 22495254.147 10017516.412 10 0 58005 61200.00000 0 6242802.108 21187104.529 12824528.829 10 0 58005 62100.00000 0 5407358.058 19650939.370 15383373.353 10 0 58005 63000.00000 0 4277428.233 17947510.546 17644355.013 10 0 58005 63900.00000 0 2852238.535 16141044.718 19563469.483 10 0 58005 64800.00000 0 1144000.018 14296601.822 21103263.623 10 0 58005 65700.00000 0 -822324.699 12477412.018 22233575.317 10 0 58005 66600.00000 0 -3009793.041 10742301.625 22932137.480 10 0 58005 67500.00000 0 -5370763.598 9143315.391 23185033.425 10 0 58005 68400.00000 0 -7848636.775 7723634.908 22986993.204 10 0 58005 69300.00000 0 -10379985.374 6515881.207 22341523.307 10 0 58005 70200.00000 0 -12896988.593 5540873.935 21260865.184 10 0 58005 71100.00000 0 -15330069.426 4806900.696 19765781.256 10 0 58005 72000.00000 0 -17610625.847 4309528.870 17885170.583 10 0 58005 72900.00000 0 -19673741.300 4031969.133 15655519.960 10 0 58005 73800.00000 0 -21460760.003 3945976.325 13120199.808 10 0 58005 74700.00000 0 -22921617.348 4013249.943 10328617.952 10 0 58005 75600.00000 0 -24016825.685 4187274.599 7335247.804 10 0 58005 76500.00000 0 -24719030.056 4415521.334 4198550.575 10 0 58005 77400.00000 0 -25014066.775 4641914.528 979814.079 10 0 58005 78300.00000 0 -24901479.287 4809457.290 -2258067.247 10 0 58005 79200.00000 0 -24394469.362 4862901.047 -5451844.942 10 0 58005 80100.00000 0 -23519286.348 4751343.141 -8539174.618 10 0 58005 81000.00000 0 -22314081.795 4430639.608 -11459852.593 10 0 58005 81900.00000 0 -20827279.930 3865528.606 -14157004.828 10 0 58005 82800.00000 0 -19115535.258 3031373.181 -16578203.291 10 0 58005 83700.00000 0 -17241365.996 1915448.940 -18676487.190 10 0 58005 84600.00000 0 -15270565.225 517722.347 -20411269.092 10 0 58005 85500.00000 0 -13269500.372 -1148912.337 -21749108.935 10 0 58006 0.00000 0 -11302415.247 -3058946.190 -22664342.290 10 0 58006 900.00000 0 -9428847.724 -5175104.648 -23139552.671 10 0 58006 1800.00000 0 -7701269.633 -7449694.422 -23165880.823 10 0 58006 2700.00000 0 -6163046.588 -9826392.381 -22743167.623 10 0 58006 3600.00000 0 -4846798.778 -12242399.943 -21879930.054 10 0 58006 4500.00000 0 -3773229.091 -14630873.819 -20593172.790 10 0 58006 5400.00000 0 -2950463.474 -16923532.433 -18908040.731 10 0 58006 6300.00000 0 -2373927.866 -19053331.010 -16857320.314 10 0 58006 7200.00000 0 -2026763.915 -20957095.861 -14480799.850 10 0 58006 8100.00000 0 -1880763.716 -22578010.537 -11824501.254 10 0 58006 9000.00000 0 -1897782.842 -23867852.820 -8939797.485 10 0 58006 9900.00000 0 -2031571.692 -24788891.636 -5882431.868 10 0 58006 10800.00000 0 -2229948.266 -25315366.909 -2711456.964 10 0 58006 11700.00000 0 -2437221.724 -25434492.186 511888.045 10 0 58006 12600.00000 0 -2596765.916 -25146939.050 3725341.291 10 0 58006 13500.00000 0 -2653635.830 -24466783.383 6866802.626 10 0 58006 14400.00000 0 -2557118.051 -23420915.204 9875517.211 10 0 58006 15300.00000 0 -2263108.722 -22047935.640 12693236.666 10 0 58006 16200.00000 0 -1736219.242 -20396585.501 15265336.573 10 0 58006 17100.00000 0 -951520.704 -18523769.102 17541869.579 10 0 58006 18000.00000 0 104147.451 -16492253.825 19478534.202 10 0 58006 18900.00000 0 1431361.542 -14368139.383 21037540.762 10 0 58006 19800.00000 0 3017827.548 -12218200.688 22188357.412 10 0 58006 20700.00000 0 4838640.002 -10107213.909 22908321.058 10 0 58006 21600.00000 0 6857078.714 -8095376.558 23183100.234 10 0 58006 22500.00000 0 9025913.620 -6235929.113 23006999.417 10 0 58006 23400.00000 0 11289166.520 -4573078.035 22383097.026 10 0 58006 24300.00000 0 13584258.881 -3140307.892 21323212.403 10 0 58006 25200.00000 0 15844457.996 -1959154.539 19847700.247 10 0 58006 26100.00000 0 18001520.208 -1038492.229 17985074.536 10 0 58006 27000.00000 0 19988420.755 -374365.903 15771467.468 10 0 58006 27900.00000 0 21742055.094 49623.291 13249932.659 10 0 58006 28800.00000 0 23205796.825 261394.965 10469605.478 10 0 58006 29700.00000 0 24331802.790 298968.179 7484736.894 10 0 58006 30600.00000 0 25082966.254 208602.901 4353620.329 10 0 58006 31500.00000 0 25434433.834 42584.664 1137433.948 10 0 58006 32400.00000 0 25374620.732 -143251.287 -2100977.068 10 0 58006 33300.00000 0 24905680.564 -292148.532 -5298352.156 10 0 58006 34200.00000 0 24043409.951 -349096.174 -8392273.824 10 0 58006 35100.00000 0 22816592.758 -263417.680 -11322405.946 10 0 58006 36000.00000 0 21265813.245 8830.407 -14031685.601 10 0 58006 36900.00000 0 19441790.350 502753.364 -16467443.540 10 0 58006 37800.00000 0 17403305.684 1242896.951 -18582430.560 10 0 58006 38700.00000 0 15214814.700 2241982.869 -20335729.693 10 0 58006 39600.00000 0 12943843.366 3500153.829 -21693537.037 10 0 58006 40500.00000 0 10658280.758 5004758.955 -22629797.430 10 0 58006 41400.00000 0 8423681.248 6730687.104 -23126684.534 10 0 58006 42300.00000 0 6300688.554 8641232.513 -23174918.226 10 0 58006 43200.00000 0 4342687.574 10689455.181 -22773915.612 10 0 58006 44100.00000 0 2593779.512 12819978.121 -21931775.062 10 0 58006 45000.00000 0 1087161.694 14971145.952 -20665095.664 10 0 58006 45900.00000 0 -156023.888 17077455.049 -18998637.299 10 0 58006 46800.00000 0 -1127328.848 19072154.856 -16964829.035 10 0 58006 47700.00000 0 -1831100.139 20889913.377 -14603135.996 10 0 58006 48600.00000 0 -2284043.876 22469437.727 -11959296.974 10 0 58006 49500.00000 0 -2514271.691 23755942.692 -9084446.998 10 0 58006 50400.00000 0 -2559870.875 24703366.536 -6034140.983 10 0 58006 51300.00000 0 -2467058.888 25276243.636 -2867296.045 10 0 58006 52200.00000 0 -2287999.533 25451157.394 354928.618 10 0 58006 53100.00000 0 -2078371.790 25217713.743 3570294.112 10 0 58006 54000.00000 0 -1894792.474 24578994.997 6716665.733 10 0 58006 54900.00000 0 -1792199.922 23551474.668 9733197.043 10 0 58006 55800.00000 0 -1821307.718 22164395.814 12561492.534 10 0 58006 56700.00000 0 -2026234.952 20458637.220 15146727.665 10 0 58006 57600.00000 0 -2442412.612 18485112.670 17438705.482 10 0 58006 58500.00000 0 -3094854.753 16302767.826 19392829.880 10 0 58006 59400.00000 0 -3996868.556 13976255.909 20970976.874 10 0 58006 60300.00000 0 -5149259.633 11573386.876 22142246.784 10 0 58006 61200.00000 0 -6540068.744 9162454.682 22883581.996 10 0 58006 62100.00000 0 -8144854.307 6809552.713 23180237.295 10 0 58006 63000.00000 0 -9927512.378 4575988.572 23026092.091 10 0 58006 63900.00000 0 -11841603.179 2515906.079 22423796.663 10 0 58006 64800.00000 0 -13832131.687 674214.223 21384747.556 10 0 58006 65700.00000 0 -15837710.185 -915089.438 19928890.444 10 0 58006 66600.00000 0 -17793013.673 -2230129.403 18084352.300 10 0 58006 67500.00000 0 -19631425.854 -3261844.921 15886908.256 10 0 58006 68400.00000 0 -21287764.355 -4014134.504 13379292.162 10 0 58006 69300.00000 0 -22700969.409 -4503445.480 10610363.607 10 0 58006 70200.00000 0 -23816641.119 -4757825.843 7634147.549 10 0 58006 71100.00000 0 -24589316.207 -4815479.096 4508765.929 10 0 58006 72000.00000 0 -24984385.973 -4722884.643 1295283.565 10 0 58006 72900.00000 0 -24979572.545 -4532565.479 -1943507.226 10 0 58006 73800.00000 0 -24565899.642 -4300600.520 -5144337.229 10 0 58006 74700.00000 0 -23748116.157 -4083990.039 -8244719.085 10 0 58006 75600.00000 0 -22544554.857 -3937989.000 -11184187.196 10 0 58006 76500.00000 0 -20986433.106 -3913524.108 -13905492.434 10 0 58006 77400.00000 0 -19116626.834 -4054806.216 -16355726.644 10 0 58006 78300.00000 0 -16987971.424 -4397240.629 -18487354.094 10 0 58006 79200.00000 0 -14661163.221 -4965724.278 -20259129.656 10 0 58006 80100.00000 0 -12202351.803 -5773401.418 -21636886.397 10 0 58006 81000.00000 0 -9680525.428 -6820929.368 -22594178.615 10 0 58006 81900.00000 0 -7164799.753 -8096283.755 -23112769.726 10 0 58006 82800.00000 0 -4721723.001 -9575109.710 -23182957.753 10 0 58006 83700.00000 0 -2412708.818 -11221602.583 -22803734.542 10 0 58006 84600.00000 0 -291701.742 -12989879.937 -21982777.956 10 0 58006 85500.00000 0 1596830.199 -14825786.400 -20736279.290 10 0 58007 0.00000 0 3219495.560 -16669055.676 -19088611.028 10 0 58007 900.00000 0 4555109.018 -18455739.843 -17071842.227 10 0 58007 1800.00000 0 5595307.268 -20120805.403 -14725112.260 10 0 58007 2700.00000 0 6344627.772 -21600789.143 -12093874.171 10 0 58007 3600.00000 0 6820051.028 -22836405.228 -9229022.498 10 0 58007 4500.00000 0 7050026.343 -23774996.201 -6185921.270 10 0 58007 5400.00000 0 7073023.536 -24372727.739 -3023349.783 10 0 58007 6300.00000 0 6935671.507 -24596437.027 197614.983 10 0 58007 7200.00000 0 6690561.428 -24425058.615 3414759.219 10 0 58007 8100.00000 0 6393806.010 -23850568.707 6565915.642 10 0 58007 9000.00000 0 6102456.318 -22878408.167 9590148.057 10 0 58007 9900.00000 0 5871883.542 -21527365.651 12428915.542 10 0 58007 10800.00000 0 5753234.931 -19828924.174 15027194.998 10 0 58007 11700.00000 0 5791070.302 -17826096.209 17334541.267 10 0 58007 12600.00000 0 6021278.626 -15571793.505 19306064.823 10 0 58007 13500.00000 0 6469363.012 -13126796.917 20903308.354 10 0 58007 14400.00000 0 7149167.737 -10557408.254 22095005.049 10 0 58007 15300.00000 0 8062103.013 -7932879.727 22857703.204 10 0 58007 16200.00000 0 9196902.869 -5322726.175 23176243.969 10 0 58007 17100.00000 0 10529929.534 -2794030.739 23044081.509 10 0 58007 18000.00000 0 12026014.847 -408855.725 22463437.506 10 0 58007 18900.00000 0 13639806.524 1778133.345 21445284.987 10 0 58007 19800.00000 0 15317565.514 3721730.736 20009159.644 10 0 58007 20700.00000 0 16999340.882 5387853.190 18182800.285 10 0 58007 21600.00000 0 18621431.998 6754731.487 16001623.603 10 0 58007 22500.00000 0 20119034.624 7813579.696 13508042.136 10 0 58007 23400.00000 0 21428958.701 8568713.024 10750637.943 10 0 58007 24300.00000 0 22492301.759 9037108.922 7783208.021 10 0 58007 25200.00000 0 23256963.065 9247430.256 4663700.691 10 0 58007 26100.00000 0 23679889.960 9238552.849 1453065.104 10 0 58007 27000.00000 0 23728959.176 9057661.518 -1785961.741 10 0 58007 27900.00000 0 23384411.727 8757997.728 -4990104.501 10 0 58007 28800.00000 0 22639779.375 8396357.205 -8096808.474 10 0 58007 29700.00000 0 21502263.090 8030446.677 -11045481.030 10 0 58007 30600.00000 0 19992547.797 7716214.708 -13778689.120 10 0 58007 31500.00000 0 18144062.375 7505272.191 -16243287.757 10 0 58007 32400.00000 0 16001717.723 7442513.540 -18391456.529 10 0 58007 33300.00000 0 13620177.920 7564040.119 -20181623.769 10 0 58007 34200.00000 0 11061739.074 7895473.701 -21579260.914 10 0 58007 35100.00000 0 8393906.362 8450730.358 -22557532.914 10 0 58007 36000.00000 0 5686771.629 9231304.987 -23097793.923 10 0 58007 36900.00000 0 3010301.349 10226094.730 -23189920.852 10 0 58007 37800.00000 0 431647.337 11411766.705 -22832480.740 10 0 58007 38700.00000 0 -1987409.410 12753652.791 -22032731.058 10 0 58007 39600.00000 0 -4192777.681 14207132.476 -20806455.066 10 0 58007 40500.00000 0 -6140044.454 15719444.976 -19177637.108 10 0 58007 41400.00000 0 -7796053.431 17231854.584 -17177985.368 10 0 58007 42300.00000 0 -9140011.481 18682079.104 -14846311.963 10 0 58007 43200.00000 0 -10164080.291 20006880.899 -12227782.464 10 0 58007 44100.00000 0 -10873431.517 21144713.729 -9373048.890 10 0 58007 45000.00000 0 -11285765.367 22038316.465 -6337282.120 10 0 58007 45900.00000 0 -11430314.372 22637147.032 -3179121.174 10 0 58007 46800.00000 0 -11346374.831 22899556.414 40441.792 10 0 58007 47700.00000 0 -11081427.498 22794612.972 3259220.772 10 0 58007 48600.00000 0 -10688925.827 22303501.464 6415018.695 10 0 58007 49500.00000 0 -10225843.635 21420438.184 9446812.443 10 0 58007 50400.00000 0 -9750084.008 20153063.222 12295918.512 10 0 58007 51300.00000 0 -9317857.183 18522291.973 14907118.032 10 0 58007 52200.00000 0 -8981136.704 16561629.968 17229720.341 10 0 58007 53100.00000 0 -8785300.333 14315977.088 19218545.044 10 0 58007 54000.00000 0 -8767055.048 11839968.129 20834803.851 10 0 58007 54900.00000 0 -8952734.169 9195915.945 22046864.909 10 0 58007 55800.00000 0 -9357039.746 6451440.109 22830884.162 10 0 58007 56700.00000 0 -9982285.278 3676877.452 23171290.476 10 0 58007 57600.00000 0 -10818173.254 942580.404 23061113.634 10 0 58007 58500.00000 0 -11842119.874 -1683785.420 22502147.040 10 0 58007 59400.00000 0 -13020116.310 -4139832.271 21504939.936 10 0 58007 60300.00000 0 -14308093.031 -6370821.698 20088617.150 10 0 58007 61200.00000 0 -15653732.025 -8331716.442 18280527.817 10 0 58007 62100.00000 0 -16998652.084 -9988825.882 16115728.114 10 0 58007 63000.00000 0 -18280875.665 -11320974.826 13636306.650 10 0 58007 63900.00000 0 -19437472.906 -12320145.356 10890564.908 10 0 58007 64800.00000 0 -20407269.980 -12991564.032 7932068.551 10 0 58007 65700.00000 0 -21133505.429 -13353230.639 4818588.679 10 0 58007 66600.00000 0 -21566319.788 -13434908.897 1610955.072 10 0 58007 67500.00000 0 -21664970.713 -13276623.238 -1628154.322 10 0 58007 68400.00000 0 -21399677.592 -12926727.372 -4835461.710 10 0 58007 69300.00000 0 -20753015.766 -12439629.096 -7948348.594 10 0 58007 70200.00000 0 -19720800.318 -11873270.763 -10906098.678 10 0 58007 71100.00000 0 -18312421.746 -11286475.173 -13651098.106 10 0 58007 72000.00000 0 -16550619.896 -10736271.991 -16129967.851 10 0 58007 72900.00000 0 -14470706.838 -10275319.977 -18294605.190 10 0 58007 73800.00000 0 -12119272.998 -9949535.361 -20103113.785 10 0 58007 74700.00000 0 -9552432.763 -9796026.931 -21520604.706 10 0 58007 75600.00000 0 -6833684.699 -9841424.427 -22519854.161 10 0 58007 76500.00000 0 -4031477.146 -10100669.374 -23081806.965 10 0 58007 77400.00000 0 -1216581.452 -10576317.301 -23195918.175 10 0 58007 78300.00000 0 1540617.894 -11258378.464 -22860328.687 10 0 58007 79200.00000 0 4172804.582 -12124701.460 -22081873.745 10 0 58007 80100.00000 0 6618273.566 -13141881.661 -20875926.323 10 0 58007 81000.00000 0 8823232.906 -14266654.805 -19266080.135 10 0 58007 81900.00000 0 10743771.813 -15447716.512 -17283679.640 10 0 58007 82800.00000 0 12347416.386 -16627891.259 -14967206.835 10 0 58007 83700.00000 0 13614211.710 -17746560.509 -12361536.802 10 0 58007 84600.00000 0 14537288.315 -18742249.378 -9517075.976 10 0 58007 85500.00000 0 15122891.911 -19555264.953 -6488799.012 99